Location: Barrialito
(9.8982°N, 67.7750°W)
Time: 17:11:56
(UTC+00:00)

Cosmos 2181 Rocket - Pass Details

Date: 18 April 2024
Orbit: 952 x 1013 km, 82.9° (Epoch: 18 May)

Event Time Altitude Azimuth Distance (km) Brightness Sun altitude
Rises 23:40:53 0° 188° (S) 3,619 6.9 -15.0°
Reaches altitude 10° 23:43:22 10° 190° (S) 2,676 6.3 -15.6°
Maximum altitude 23:49:27 71° 273° (W) 1,007 4.2 -17.1°
Drops below altitude 10° 23:55:36 10° 358° (N) 2,701 6.5 -18.5°
Sets 23:58:08 0° 360° (N) 3,656 7.2 -19.1°
